FW6883 Weather Reports


Display with metric or nautical units.
time (UTC)temp
F
wind
direction
speed
MPH
gust
MPH
rain 1hr
in
rain 24hr
in
rain mn
in
humidity
%
barometer
mb
20260503013048 59 98 4.0 10.0 0.00 0.00 0.00 53 1003.8
20260503011553 60 96 6.0 11.0 0.00 0.00 0.00 39 1003.7
20260503010041 61 96 4.0 11.0 0.00 0.00 0.00 40 1003.8
20260503004540 62 76 4.0 13.0 0.00 0.00 0.00 38 1003.7
20260503003040 62 77 8.0 16.0 0.00 0.00 0.00 37 1003.4
20260503001535 62 44 9.0 15.0 0.00 0.00 0.00 35 1003.7
20260503000036 63 103 6.0 12.0 0.00 0.00 0.00 36 1003.6
20260502234534 63 94 4.0 13.0 0.00 0.00 0.00 37 1003.8
20260502233028 62 79 5.0 16.0 0.00 0.00 0.00 36 1003.5
20260502231527 62 106 4.0 15.0 0.00 0.00 0.00 35 1004.0
20260502230021 63 91 5.0 13.0 0.00 0.00 0.00 36 1004.0
20260502224519 63 96 8.0 15.0 0.00 0.00 0.00 35 1004.1
20260502223017 62 110 7.0 16.0 0.00 0.00 0.00 38 1004.1
20260502221513 63 107 9.0 21.0 0.00 0.00 0.00 41 1004.4
20260502220018 63 75 7.0 15.0 0.00 0.00 0.00 39 1004.9
20260502214507 63 78 8.0 15.0 0.00 0.00 0.00 43 1004.9
20260502213005 63 63 7.0 14.0 0.00 0.00 0.00 44 1004.9
20260502211501 64 79 6.0 12.0 0.00 0.00 0.00 39 1005.3
20260502210059 65 130 5.0 12.0 0.00 0.00 0.00 37 1005.4
20260502204600 66 309 3.0 10.0 0.00 0.00 0.00 30 1005.6
20260502203116 66 85 3.0 8.0 0.00 0.00 0.00 23 1005.8
20260502201603 65 303 7.0 13.0 0.00 0.00 0.00 20 1005.8
20260502200051 65 278 3.0 10.0 0.00 0.00 0.00 22 1006.1
20260502194544 64 314 5.0 12.0 0.00 0.00 0.00 21 1006.4
20260502193055 64 338 6.0 12.0 0.00 0.00 0.00 21 1006.3
20260502191540 64 322 8.0 14.0 0.00 0.00 0.00 20 1006.7
20260502190042 64 308 7.0 12.0 0.00 0.00 0.00 22 1006.4
20260502184539 63 331 7.0 14.0 0.00 0.00 0.00 24 1006.8
20260502183030 62 316 7.0 13.0 0.00 0.00 0.00 22 1007.0
20260502181530 63 37 3.0 12.0 0.00 0.00 0.00 25 1007.0
20260502163010 61 293 6.0 13.0 0.00 0.00 0.00 25 1007.0
20260502161507 61 263 6.0 12.0 0.00 0.00 0.00 25 1007.1
20260502151612 59 266 4.0 10.0 0.00 0.00 0.00 26 1006.7
20260502123022 55 278 3.0 9.0 0.00 0.00 0.00 27 1005.7
20260502121522 56 234 5.0 11.0 0.00 0.00 0.00 27 1005.7
20260502114512 55 221 3.0 8.0 0.00 0.00 0.00 28 1005.6
20260502113009 55 214 2.0 11.0 0.00 0.00 0.00 29 1005.8
20260502111505 55 305 3.0 10.0 0.00 0.00 0.00 29 1005.8
20260502110002 55 229 2.0 6.0 0.00 0.00 0.00 30 1005.9
20260502104610 56 193 1.0 8.0 0.00 0.00 0.00 30 1006.0
20260502103056 55 214 3.0 8.0 0.00 0.00 0.00 29 1006.0
20260502101608 56 212 2.0 5.0 0.00 0.00 0.00 28 1006.1
20260502071519 56 176 0.0 3.0 0.00 0.00 0.00 26 1007.2
20260502070026 56 162 0.0 4.0 0.00 0.00 0.00 27 1007.1
20260502064511 57 189 1.0 6.0 0.00 0.00 0.00 28 1007.3
20260502063018 56 185 1.0 3.0 0.00 0.00 0.00 36 1007.2
20260502061512 56 205 1.0 3.0 0.00 0.00 0.00 32 1007.2
20260502060026 55 123 0.0 2.0 0.00 0.00 0.00 38 1007.4
20260502054506 54 130 1.0 3.0 0.00 0.00 0.00 34 1007.4
20260502053002 53 146 1.0 2.0 0.00 0.00 0.00 34 1007.5
20260502051603 53 142 1.0 3.0 0.00 0.00 0.00 34 1007.2
20260502044558 53 166 2.0 5.0 0.00 0.00 0.00 35 1007.0
20260502043110 52 101 3.0 5.0 0.00 0.00 0.00 40 1006.8
20260502041613 52 147 2.0 4.0 0.00 0.00 0.00 42 1006.7
20260502040056 52 111 2.0 6.0 0.00 0.00 0.00 42 1006.4
20260502034549 52 102 2.0 5.0 0.00 0.00 0.00 48 1006.1
20260502033046 52 117 1.0 4.0 0.00 0.00 0.00 60 1006.1
20260502031544 52 112 2.0 5.0 0.00 0.00 0.00 64 1005.9
20260502030059 52 133 1.0 3.0 0.00 0.00 0.00 66 1005.8
20260502024552 53 113 1.0 4.0 0.00 0.00 0.00 64 1005.5
20260502023049 54 103 2.0 4.0 0.00 0.00 0.00 61 1005.6
20260502021533 55 104 2.0 9.0 0.00 0.00 0.00 55 1005.6
20260502020031 56 94 5.0 11.0 0.00 0.00 0.00 47 1005.5
20260502014531 57 101 2.0 13.0 0.00 0.00 0.00 39 1005.5